Find Starlink 30082

NORAD ID: 57509 Int'l Des: 2023-113 Owner: SPXS Country: US Constellation: starlink operational
LEOCIRCULAR

Current View

Loading 3D Globe...

About Starlink 30082

Starlink 30082 (NORAD 57509) is a starlink constellation satellite (v2 mini) launched Aug 7, 2023 by SPXS of US. It operates in LEO, CIRCULAR orbit with a mass of 730.00 kg.

About Starlink 30082

Description loading...

Upcoming Passes

Passes for default location (London). Set your location on the main map for personalized predictions.

Altitude History

Loading altitude history...

Two-Line Element Set

1 57509U 23113Q 26175.90411988 .00000978 00000-0 45041-4 0 9999
2 57509 43.0023 130.4613 0001200 267.1804 92.8911 15.27579805160072
Epoch: Jun 24, 2026 • Age: 24 hours

Current Status

Altitude 486.8 km
Velocity 7.63 km/s
Sub-Earth Point 42.38°N, 36.32°W
Launch Date Aug 7, 2023
Age 2.8 years
Type internet

Technical Details

Classification Payload
Mass 730.00 kg
Dry Mass 700.00 kg
Total Mass 730.00 kg
Length 0.30 m
Diameter 4.10 m
Span 29.00 m
Shape Box + pan
Manufacturer SPXS
Bus Type Starlink V2M
Phase Status In Orbit
Owner/State SPXS/US

Most Searched